Location: Monrovia
(34.7865°N, 86.7139°W)
Time: 13:53:16
(UTC+00:00)

Nadezhda 1 Rocket - Pass Details

Date: 14 July 2020
Orbit: 941 x 1005 km, 83.0° (Epoch: 12 August)

Event Time Altitude Azimuth Distance (km) Brightness Sun altitude
Rises 01:28:31 0° 356° (N) 3,736 7.6 -5.7°
Reaches altitude 10° 01:31:05 10° 359° (N) 2,780 6.9 -6.2°
Maximum altitude 01:37:27 70° 83° (E) 1,055 4.1 -7.3°
Drops below altitude 10° 01:43:43 10° 166° (SSE) 2,732 5.9 -8.3°
Sets 01:46:13 0° 169° (S) 3,667 6.6 -8.8°
